Location: Moscow
(55.7500°N, 37.5830°E)
Time: 11:26:55
(UTC+03:00)

Vanguard 3 - Pass Details

Date: 30 November 2021
Orbit: 508 x 3260 km, 33.3° (Epoch: 19 January)

Event Time Altitude Azimuth Distance (km) Brightness Sun altitude
Rises 05:49:36 0° 227° (SW) 7,210 11.6 -21.7°
Reaches altitude 10° 05:55:49 10° 217° (SW) 6,060 11.3 -20.9°
Maximum altitude 06:09:07 26° 171° (S) 4,173 10.9 -19.0°
Drops below altitude 10° 06:19:07 10° 122° (ESE) 4,487 12.0 -17.7°
Sets 06:22:50 0° 110° (ESE) 5,088 13.0 -17.1°
